Beaver, WV

8:02 PM EST on January 17, 2017 (GMT -0500)
Raleigh County Memorial

Weather History for KBKW - March, 2013

Change the Weather History Date:

Wednesday, March 27, 2013

  Actual Average Record
Temperature  
Mean Temperature 31 °F 46 °F  
Max Temperature 34 °F 56 °F 80 °F (1998)
Min Temperature 27 °F 35 °F 7 °F (1955)
Degree Days  
Heating Degree Days 34 19  
Month to date heating degree days 818 636  
Since 1 July heating degree days 4632 4637  
Moisture  
Dew Point 25 °F    
Average Humidity 81    
Maximum Humidity 92    
Minimum Humidity 69    
Precipitation  
Precipitation 0.08 in 0.12 in 1.65 in (1994)
Month to date precipitation 1.96 3.11  
Year to date precipitation 8.15 8.68  
Snow  
Snow 1.70 in - - ()
Month to date snowfall 15.7  
Since 1 September snowfall 71.6  
Snow Depth 3.00 in    
Sea Level Pressure  
Sea Level Pressure 30.18 in    
Wind  
Wind Speed 9 mph (WNW)    
Max Wind Speed 20 mph    
Max Gust Speed 25 mph    
Visibility 4 miles    
Events Fog , Snow    
T = Trace of Precipitation, MM = Missing Value Source: NWS Daily Summary

Daily Weather History Graph

Daily Weather History Graph

Search for Another Location

Airport or City:

Trip Planner

Search our weather history database for the weather conditions in past years. The results will help you decide how hot, cold, wet, or windy it might be!

Date:

Astronomy

Mar. 27, 2013 Rise Set
Actual Time 7:16 AM EDT 7:43 PM EDT
Civil Twilight 6:50 AM EDT 8:09 PM EDT
Nautical Twilight 6:19 AM EDT 8:40 PM EDT
Astronomical Twilight 5:48 AM EDT 9:11 PM EDT
Moon 8:23 PM EDT (3/27) 7:07 AM EDT (3/27)
Length of Visible Light 13h 18m
Length of Day
12h 26m
Full, 100% of the Moon is Illuminated
Mar 27
Full
Apr 3
Last Quarter
Apr 10
New
Apr 18
First Quarter
Apr 25
Full

Hourly Weather History & Observations

Time (EDT) Temp. Windchill Dew Point Humidity Pressure Visibility Wind Dir Wind Speed Gust Speed Precip Events Conditions
12:15 AM 28.4 °F 19.1 °F 24.8 °F 86% 30.10 in 3.0 mi WNW 10.4 mph - 0.00 in Snow Light Snow
12:29 AM 28.4 °F 19.7 °F 24.8 °F 86% 30.10 in 1.8 mi WNW 9.2 mph - 0.01 in Snow Light Snow
12:37 AM 28.4 °F 18.5 °F 24.8 °F 86% 30.11 in 1.0 mi WNW 11.5 mph - 0.01 in Snow Light Snow
12:43 AM 28.4 °F 18.5 °F 24.8 °F 86% 30.11 in 2.0 mi WNW 11.5 mph 17.3 mph 0.01 in Snow Light Snow
12:51 AM 28.0 °F 18.6 °F 24.1 °F 85% 30.21 in 3.0 mi WNW 10.4 mph - 0.01 in Snow Light Snow
1:51 AM 28.0 °F 19.3 °F 23.0 °F 81% 30.20 in 9.0 mi WNW 9.2 mph - 0.00 in   Overcast
2:04 AM 28.4 °F 19.1 °F 24.8 °F 86% 30.10 in 1.8 mi NW 10.4 mph - 0.00 in Snow Light Snow
2:15 AM 28.4 °F 19.7 °F 24.8 °F 86% 30.11 in 2.0 mi WNW 9.2 mph - 0.00 in Snow Light Snow
2:22 AM 26.6 °F 18.2 °F 24.8 °F 93% 30.10 in 1.0 mi NW 8.1 mph - 0.01 in Snow Light Snow
2:32 AM 26.6 °F 19.1 °F 24.8 °F 93% 30.10 in 1.8 mi WNW 6.9 mph - 0.01 in Snow Light Snow
2:35 AM 26.6 °F 20.0 °F 24.8 °F 93% 30.10 in 3.0 mi WNW 5.8 mph - 0.01 in Snow Light Snow
2:45 AM 26.6 °F 19.1 °F 24.8 °F 93% 30.10 in 2.0 mi WNW 6.9 mph - 0.01 in Snow Light Snow
2:51 AM 27.0 °F 19.5 °F 24.1 °F 89% 30.19 in 1.0 mi NW 6.9 mph - 0.02 in Snow Light Snow
2:58 AM 26.6 °F 17.5 °F 24.8 °F 93% 30.11 in 0.5 mi NW 9.2 mph - 0.01 in Fog , Snow Snow
3:08 AM 26.6 °F 18.2 °F 24.8 °F 93% 30.10 in 2.0 mi WNW 8.1 mph - 0.01 in Snow Light Snow
3:16 AM 26.6 °F 17.5 °F 24.8 °F 93% 30.10 in 6.0 mi WNW 9.2 mph - 0.01 in Snow Light Snow
3:33 AM 26.6 °F 19.1 °F 24.8 °F 93% 30.10 in 9.0 mi NW 6.9 mph - 0.01 in   Overcast
3:51 AM 27.0 °F 18.7 °F 24.1 °F 89% 30.19 in 6.0 mi WNW 8.1 mph - 0.01 in Snow Light Snow
4:09 AM 26.6 °F 20.0 °F 24.8 °F 93% 30.09 in 2.0 mi WNW 5.8 mph - 0.00 in Snow Light Snow
4:18 AM 26.6 °F 18.2 °F 24.8 °F 93% 30.09 in 4.0 mi WNW 8.1 mph - 0.00 in Snow Light Snow
4:21 AM 26.6 °F 18.2 °F 24.8 °F 93% 30.09 in 2.0 mi WNW 8.1 mph - 0.00 in Snow Light Snow
4:28 AM 26.6 °F 17.5 °F 24.8 °F 93% 30.09 in 1.2 mi WNW 9.2 mph - 0.01 in Snow Light Snow
4:33 AM 26.6 °F 17.5 °F 23.0 °F 86% 30.10 in 3.0 mi NW 9.2 mph - 0.01 in Snow Light Snow
4:48 AM 26.6 °F 16.8 °F 21.2 °F 80% 30.10 in 10.0 mi NW 10.4 mph - 0.01 in   Overcast
4:51 AM 27.0 °F 17.3 °F 21.9 °F 81% 30.19 in 10.0 mi WNW 10.4 mph - 0.01 in   Overcast
5:15 AM 26.6 °F 15.7 °F 21.2 °F 80% 30.10 in 10.0 mi NW 12.7 mph 18.4 mph N/A   Overcast
5:51 AM 27.0 °F 17.3 °F 21.0 °F 78% 30.20 in 10.0 mi WNW 10.4 mph 18.4 mph N/A   Overcast
6:51 AM 27.0 °F 18.0 °F 21.0 °F 78% 30.22 in 8.0 mi West 9.2 mph - 0.00 in Snow Light Snow
7:51 AM 27.0 °F 18.0 °F 21.9 °F 81% 30.24 in 4.0 mi West 9.2 mph - 0.00 in Snow Light Snow
8:18 AM 26.6 °F 20.0 °F 21.2 °F 80% 30.14 in 2.0 mi WNW 5.8 mph - 0.00 in Snow Light Snow
8:36 AM 26.6 °F 17.5 °F 21.2 °F 80% 30.15 in 4.0 mi West 9.2 mph - 0.00 in Snow Light Snow
8:51 AM 27.0 °F 16.7 °F 21.9 °F 81% 30.25 in 5.0 mi West 11.5 mph - 0.00 in Snow Light Snow
9:17 AM 26.6 °F 16.2 °F 21.2 °F 80% 30.15 in 3.0 mi West 11.5 mph - 0.00 in Snow Light Snow
9:33 AM 26.6 °F 16.2 °F 21.2 °F 80% 30.16 in 6.0 mi WNW 11.5 mph - 0.00 in Snow Light Snow
9:42 AM 26.6 °F 16.2 °F 21.2 °F 80% 30.16 in 1.8 mi WNW 11.5 mph 20.7 mph 0.00 in Snow Light Snow
9:51 AM 27.0 °F 18.7 °F 21.9 °F 81% 30.26 in 1.8 mi WNW 8.1 mph - 0.00 in Snow Light Snow
9:58 AM 26.6 °F 17.5 °F 21.2 °F 80% 30.16 in 3.0 mi NW 9.2 mph - 0.00 in Snow Light Snow
10:10 AM 26.6 °F 19.1 °F 23.0 °F 86% 30.16 in 2.0 mi WNW 6.9 mph - 0.00 in Snow Light Snow
10:28 AM 26.6 °F 16.8 °F 23.0 °F 86% 30.16 in 1.5 mi WNW 10.4 mph - 0.00 in Snow Light Snow
10:51 AM 27.0 °F 18.0 °F 23.0 °F 85% 30.26 in 2.0 mi WNW 9.2 mph - 0.00 in Snow Light Snow
10:58 AM 28.4 °F 22.2 °F 24.8 °F 86% 30.17 in 3.0 mi WNW 5.8 mph - 0.00 in Snow Light Snow
11:46 AM 28.4 °F 17.5 °F 21.2 °F 74% 30.17 in 10.0 mi WNW 13.8 mph 19.6 mph 0.00 in   Overcast
11:51 AM 30.0 °F 21.7 °F 23.0 °F 75% 30.27 in 10.0 mi WNW 9.2 mph 19.6 mph 0.00 in   Overcast
12:51 PM 30.9 °F 22.2 °F 21.9 °F 69% 30.27 in 10.0 mi WNW 10.4 mph 20.7 mph N/A   Overcast
1:26 PM 32.0 °F 22.1 °F 21.2 °F 64% 30.18 in 10.0 mi West 13.8 mph 25.3 mph N/A   Overcast
1:51 PM 32.0 °F 22.1 °F 21.9 °F 66% 30.27 in 10.0 mi WNW 13.8 mph 23.0 mph 0.00 in Snow Light Snow
2:23 PM 32.0 °F 24.2 °F 23.0 °F 69% 30.18 in 4.0 mi WNW 9.2 mph 18.4 mph 0.00 in Snow Light Snow
2:51 PM 33.1 °F 24.9 °F 25.0 °F 72% 30.27 in 6.0 mi WNW 10.4 mph - 0.00 in Snow Light Snow
3:35 PM 33.8 °F 25.8 °F 24.8 °F 70% 30.16 in 9.0 mi WNW 10.4 mph 16.1 mph 0.00 in Snow Light Snow
3:51 PM 34.0 °F 26.0 °F 25.0 °F 70% 30.25 in 10.0 mi WNW 10.4 mph - 0.00 in   Overcast
4:25 PM 32.0 °F 23.0 °F 24.8 °F 75% 30.15 in 1.8 mi WNW 11.5 mph - 0.00 in Snow Light Snow
4:32 PM 30.2 °F 21.3 °F 26.6 °F 86% 30.15 in 1.0 mi WNW 10.4 mph - 0.00 in Snow Light Snow
4:43 PM 30.2 °F 25.4 °F 26.6 °F 86% 30.16 in 0.8 mi WNW 4.6 mph - 0.00 in Snow Light Snow
4:51 PM 32.0 °F 24.2 °F 28.9 °F 88% 30.25 in 1.0 mi West 9.2 mph - 0.01 in Snow Light Snow
4:57 PM 32.0 °F 23.0 °F 28.4 °F 87% 30.16 in 3.0 mi West 11.5 mph - 0.00 in Snow Light Snow
5:12 PM 33.8 °F 24.8 °F 26.6 °F 75% 30.16 in 10.0 mi WNW 12.7 mph - 0.00 in   Overcast
5:27 PM 32.0 °F 21.6 °F 26.6 °F 80% 30.17 in 1.5 mi NW 15.0 mph - 0.00 in Snow Light Snow
5:30 PM 30.2 °F 19.3 °F 26.6 °F 86% 30.17 in 0.8 mi NW 15.0 mph - 0.00 in Snow Light Snow
5:40 PM 30.2 °F 20.8 °F 26.6 °F 86% 30.17 in 0.2 mi NW 11.5 mph 23.0 mph 0.00 in Fog , Snow Snow
5:48 PM 30.2 °F 22.6 °F 28.4 °F 93% 30.17 in 1.0 mi WNW 8.1 mph - 0.00 in Snow Light Snow
5:51 PM 30.9 °F 23.5 °F 28.0 °F 89% 30.27 in 1.5 mi West 8.1 mph - 0.01 in Snow Light Snow
5:56 PM 30.2 °F 22.6 °F 26.6 °F 86% 30.17 in 3.0 mi West 8.1 mph - 0.00 in Snow Light Snow
6:40 PM 30.2 °F 21.9 °F 26.6 °F 86% 30.18 in 2.0 mi West 9.2 mph - 0.00 in Snow Light Snow
6:51 PM 30.9 °F 24.3 °F 27.0 °F 85% 30.28 in 1.2 mi NW 6.9 mph - 0.00 in Snow Light Snow
6:55 PM 30.2 °F 21.9 °F 26.6 °F 86% 30.18 in 0.5 mi NW 9.2 mph - 0.00 in Fog , Snow Snow
6:59 PM 30.2 °F 20.8 °F 28.4 °F 93% 30.18 in 0.2 mi NNW 11.5 mph - 0.00 in Fog , Snow Snow
7:16 PM 30.2 °F 22.6 °F 28.4 °F 93% 30.18 in 1.0 mi WNW 8.1 mph - 0.02 in Snow Light Snow
7:20 PM 30.2 °F 24.3 °F 28.4 °F 93% 30.18 in 3.0 mi WNW 5.8 mph - 0.02 in Snow Light Snow
7:32 PM 30.2 °F 24.3 °F 28.4 °F 93% 30.18 in 9.0 mi WNW 5.8 mph - 0.02 in   Overcast
7:51 PM 30.0 °F 24.1 °F 27.0 °F 88% 30.28 in 8.0 mi WNW 5.8 mph - 0.02 in Snow Light Snow
8:05 PM 30.2 °F 23.4 °F 26.6 °F 86% 30.19 in 5.0 mi West 6.9 mph - 0.00 in Snow Light Snow
8:13 PM 30.2 °F 21.9 °F 28.4 °F 93% 30.18 in 4.0 mi West 9.2 mph - 0.00 in Snow Light Snow
8:33 PM 28.4 °F 21.2 °F 26.6 °F 93% 30.18 in 10.0 mi West 6.9 mph - 0.00 in   Mostly Cloudy
8:51 PM 28.9 °F 21.1 °F 26.1 °F 89% 30.29 in 10.0 mi West 8.1 mph - 0.00 in   Partly Cloudy
9:51 PM 28.9 °F 20.4 °F 26.1 °F 89% 30.30 in 10.0 mi West 9.2 mph - N/A   Mostly Cloudy
10:51 PM 30.0 °F 24.1 °F 26.1 °F 85% 30.30 in 7.0 mi West 5.8 mph - 0.00 in Snow Light Snow
11:04 PM 30.2 °F 23.4 °F 26.6 °F 86% 30.20 in 2.5 mi WNW 6.9 mph - 0.00 in Snow Light Snow
11:17 PM 30.2 °F 23.4 °F 26.6 °F 86% 30.20 in 2.0 mi WNW 6.9 mph - 0.00 in Snow Light Snow
11:27 PM 30.2 °F 23.4 °F 26.6 °F 86% 30.20 in 3.0 mi WNW 6.9 mph - 0.00 in Snow Light Snow
11:34 PM 30.2 °F 23.4 °F 26.6 °F 86% 30.20 in 2.5 mi WNW 6.9 mph - 0.00 in Snow Light Snow
11:44 PM 30.2 °F 21.9 °F 26.6 °F 86% 30.20 in 3.0 mi WNW 9.2 mph - 0.00 in Snow Light Snow
11:51 PM 30.0 °F 24.1 °F 27.0 °F 88% 30.29 in 6.0 mi WNW 5.8 mph - 0.00 in Snow Light Snow